User: anonymous   Login
Location: Goheenville
(40.9070°N, 79.3720°W)
Time: 15:46:33
(UTC-04:00)
Language:

Cosmos 1633 - Orbit

View from above orbital plane
View from above orbital plane
View from above satellite
View from above satellite

Ground track
Ground track

The orbit data is extracted from the following two-line orbital elements,

1 15592U 85020A   15188.15474653  .00006500  00000-0  26445-3 0  9990
2 15592 082.5408 309.7889 0016068 159.9130 255.7117 15.24214173655817
Epoch (UTC): 07 July 2015 03:42:50
Eccentricity: 0.0016068
inclination: 82.5408°
perigee height: 482 km
apogee height: 504 km
right ascension of ascending node: 309.7889°
argument of perigee: 159.9130°
revolutions per day: 15.24214173
mean anomaly at epoch: 255.7117°
orbit number at epoch: 65581

The dashed part of the orbit path shows where the satellite is in the earth's shadow,  

DLR